Previsão horária em Semyrichka

Hoje, 25 Novembro, Quarta-feira

Tempo Temperatura Precipitação Vento Pressão Humidade
00:00 0°C° 0 mm 4 m/s 748 mmHg 86%
01:00 +1°C° 0 mm 3 m/s 748 mmHg 88%
02:00 0°C° 0 mm 4 m/s 747 mmHg 91%
03:00 0°C° 0 mm 4 m/s 747 mmHg 91%
04:00 0°C° 0 mm 4 m/s 747 mmHg 91%
05:00 0°C° 0 mm 4 m/s 747 mmHg 91%
06:00 0°C° 0 mm 4 m/s 747 mmHg 87%
07:00 0°C° 0 mm 4 m/s 747 mmHg 84%
08:00 +1°C° 0 mm 4 m/s 747 mmHg 80%
09:00 +1°C° 0 mm 4 m/s 747 mmHg 75%
10:00 +3°C° 0 mm 4 m/s 747 mmHg 70%
11:00 +4°C° 0 mm 4 m/s 747 mmHg 65%
12:00 +5°C° 0 mm 4 m/s 746 mmHg 63%
13:00 +5°C° 0 mm 4 m/s 746 mmHg 60%
14:00 +6°C° 0 mm 4 m/s 746 mmHg 58%
15:00 +5°C° 0 mm 4 m/s 746 mmHg 61%
16:00 +4°C° 0 mm 4 m/s 746 mmHg 64%
17:00 +3°C° 0 mm 3 m/s 746 mmHg 67%
18:00 +3°C° 0 mm 3 m/s 746 mmHg 70%
19:00 +3°C° 0 mm 3 m/s 746 mmHg 72%
20:00 +2°C° 0 mm 3 m/s 747 mmHg 74%
21:00 +2°C° 0 mm 3 m/s 747 mmHg 76%
22:00 +3°C° 0 mm 2 m/s 747 mmHg 78%
23:00 +2°C° 0 mm 2 m/s 747 mmHg 80%

Amanhã, 26 Novembro, Quinta-feira

Tempo Temperatura Precipitação Vento Pressão Humidade
00:00 +2°C° 0 mm 2 m/s 747 mmHg 82%
01:00 +2°C° 0 mm 2 m/s 747 mmHg 83%
02:00 +3°C° 0 mm 1 m/s 747 mmHg 85%
03:00 +3°C° 0 mm 1 m/s 747 mmHg 85%
04:00 +2°C° 0 mm 1 m/s 747 mmHg 86%
05:00 +2°C° 0 mm 1 m/s 747 mmHg 87%
06:00 +2°C° 0 mm 1 m/s 747 mmHg 86%
07:00 +2°C° 0 mm 1 m/s 747 mmHg 86%
08:00 +3°C° 0 mm 1 m/s 747 mmHg 85%
09:00 +4°C° 0 mm 1 m/s 747 mmHg 80%
10:00 +5°C° 0 mm 1 m/s 747 mmHg 75%
11:00 +5°C° 0 mm 2 m/s 747 mmHg 70%
12:00 +6°C° 0 mm 2 m/s 747 mmHg 67%
13:00 +6°C° 0 mm 2 m/s 747 mmHg 65%
14:00 +7°C° 0 mm 3 m/s 747 mmHg 62%
15:00 +5°C° 0 mm 3 m/s 746 mmHg 66%
16:00 +4°C° 0 mm 3 m/s 746 mmHg 70%
17:00 +4°C° 0 mm 2 m/s 745 mmHg 74%
18:00 +2°C° 0 mm 3 m/s 745 mmHg 73%
19:00 +2°C° 0 mm 3 m/s 745 mmHg 72%
20:00 +1°C° 0 mm 3 m/s 745 mmHg 71%
21:00 +1°C° 0 mm 3 m/s 745 mmHg 71%
22:00 0°C° 0 mm 3 m/s 745 mmHg 71%
23:00 0°C° 0 mm 3 m/s 745 mmHg 71%

Depois de amanhã, 27 Novembro, Sexta-feira

Tempo Temperatura Precipitação Vento Pressão Humidade
00:00 +1°C° 0 mm 2 m/s 745 mmHg 72%
01:00 +1°C° 0 mm 2 m/s 745 mmHg 74%
02:00 -1°C° 0 mm 2 m/s 745 mmHg 76%
03:00 -1°C° 0 mm 2 m/s 745 mmHg 76%
04:00 -1°C° 0 mm 2 m/s 744 mmHg 77%
05:00 -1°C° 0 mm 2 m/s 744 mmHg 77%
06:00 -1°C° 0 mm 2 m/s 744 mmHg 76%
07:00 -1°C° 0 mm 2 m/s 744 mmHg 75%
08:00 -1°C° 0 mm 2 m/s 744 mmHg 75%
09:00 +2°C° 0 mm 2 m/s 744 mmHg 68%
10:00 +3°C° 0 mm 2 m/s 744 mmHg 61%
11:00 +4°C° 0 mm 2 m/s 744 mmHg 54%
12:00 +5°C° 0 mm 2 m/s 744 mmHg 54%
13:00 +5°C° 0 mm 2 m/s 744 mmHg 53%
14:00 +5°C° 0 mm 2 m/s 744 mmHg 53%
15:00 +4°C° 0 mm 2 m/s 744 mmHg 56%
16:00 +4°C° 0 mm 2 m/s 743 mmHg 60%
17:00 +3°C° 0 mm 2 m/s 743 mmHg 63%
18:00 +2°C° 0 mm 2 m/s 743 mmHg 64%
19:00 +2°C° 0 mm 2 m/s 743 mmHg 65%
20:00 +1°C° 0 mm 3 m/s 743 mmHg 65%
21:00 +1°C° 0 mm 3 m/s 743 mmHg 67%
22:00 +1°C° 0 mm 3 m/s 743 mmHg 70%
23:00 +1°C° 0 mm 3 m/s 743 mmHg 72%

28 Novembro, Sábado

Tempo Temperatura Precipitação Vento Pressão Humidade
00:00 +2°C° 0 mm 2 m/s 743 mmHg 76%
01:00 +2°C° 0 mm 2 m/s 743 mmHg 80%
02:00 +2°C° 0 mm 2 m/s 743 mmHg 84%
03:00 +2°C° 0 mm 2 m/s 743 mmHg 88%
04:00 +2°C° 0 mm 2 m/s 743 mmHg 92%
05:00 +2°C° 0 mm 2 m/s 743 mmHg 96%
06:00 +2°C° 0.1 mm 2 m/s 743 mmHg 96%
07:00 +2°C° 0.1 mm 2 m/s 743 mmHg 96%
08:00 +3°C° 0.1 mm 2 m/s 743 mmHg 96%
09:00 +3°C° 0 mm 2 m/s 744 mmHg 92%
10:00 +3°C° 0 mm 2 m/s 744 mmHg 87%
11:00 +4°C° 0 mm 2 m/s 744 mmHg 83%
12:00 +4°C° 0 mm 2 m/s 744 mmHg 80%
13:00 +4°C° 0 mm 2 m/s 744 mmHg 77%
14:00 +4°C° 0 mm 2 m/s 743 mmHg 74%
15:00 +4°C° 0 mm 2 m/s 744 mmHg 74%
16:00 +3°C° 0 mm 2 m/s 744 mmHg 74%
17:00 +4°C° 0 mm 1 m/s 744 mmHg 75%
18:00 +2°C° 0 mm 2 m/s 744 mmHg 77%
19:00 +2°C° 0 mm 2 m/s 744 mmHg 80%
20:00 +2°C° 0 mm 2 m/s 744 mmHg 82%
21:00 +1°C° 0 mm 2 m/s 744 mmHg 86%
22:00 +1°C° 0 mm 2 m/s 744 mmHg 90%
23:00 0°C° 0 mm 3 m/s 744 mmHg 94%

29 Novembro, Domingo

Tempo Temperatura Precipitação Vento Pressão Humidade
00:00 0°C° 0.1 mm 3 m/s 744 mmHg 94%
01:00 -1°C° 0.1 mm 4 m/s 744 mmHg 93%
02:00 -1°C° 0.1 mm 5 m/s 744 mmHg 92%
03:00 -2°C° 0.1 mm 5 m/s 744 mmHg 92%
04:00 -2°C° 0.1 mm 5 m/s 744 mmHg 92%
05:00 -2°C° 0.1 mm 5 m/s 744 mmHg 91%
06:00 -2°C° 0.3 mm 5 m/s 743 mmHg 92%
07:00 -4°C° 0.3 mm 6 m/s 743 mmHg 93%
08:00 -4°C° 0.3 mm 6 m/s 743 mmHg 94%
09:00 -4°C° 0.5 mm 6 m/s 743 mmHg 94%
10:00 -3°C° 0.5 mm 6 m/s 743 mmHg 94%
11:00 -3°C° 0.5 mm 7 m/s 743 mmHg 93%
12:00 -3°C° 0.4 mm 6 m/s 742 mmHg 94%
13:00 -3°C° 0.4 mm 6 m/s 742 mmHg 95%
14:00 -3°C° 0.4 mm 6 m/s 742 mmHg 95%
15:00 -3°C° 0.5 mm 6 m/s 742 mmHg 95%
16:00 -3°C° 0.5 mm 6 m/s 742 mmHg 96%
17:00 -3°C° 0.5 mm 6 m/s 741 mmHg 96%
18:00 -3°C° 0.4 mm 6 m/s 741 mmHg 96%
19:00 -3°C° 0.4 mm 6 m/s 741 mmHg 96%
20:00 -3°C° 0.4 mm 6 m/s 741 mmHg 96%
21:00 -3°C° 0.3 mm 6 m/s 742 mmHg 95%
22:00 -3°C° 0.3 mm 6 m/s 742 mmHg 94%
23:00 -3°C° 0.3 mm 6 m/s 742 mmHg 94%

30 Novembro, Segunda-feira

Tempo Temperatura Precipitação Vento Pressão Humidade
00:00 -3°C° 0.2 mm 6 m/s 742 mmHg 93%
01:00 -4°C° 0.2 mm 6 m/s 742 mmHg 92%
02:00 -4°C° 0.2 mm 6 m/s 742 mmHg 92%
03:00 -4°C° 0 mm 6 m/s 743 mmHg 92%
04:00 -4°C° 0 mm 5 m/s 743 mmHg 91%
05:00 -4°C° 0 mm 5 m/s 744 mmHg 91%
06:00 -4°C° 0 mm 5 m/s 744 mmHg 91%
07:00 -4°C° 0 mm 5 m/s 745 mmHg 91%
08:00 -4°C° 0 mm 5 m/s 745 mmHg 91%
09:00 -3°C° 0 mm 4 m/s 746 mmHg 91%
10:00 -1°C° 0 mm 3 m/s 746 mmHg 91%
11:00 -1°C° 0 mm 3 m/s 747 mmHg 92%
12:00 -1°C° 0 mm 2 m/s 747 mmHg 92%
13:00 -1°C° 0 mm 2 m/s 747 mmHg 91%
14:00 -1°C° 0 mm 2 m/s 747 mmHg 91%
15:00 +1°C° 0 mm 1 m/s 747 mmHg 92%
16:00 +1°C° 0 mm 1 m/s 747 mmHg 92%
17:00 +1°C° 0 mm 1 m/s 748 mmHg 92%
18:00 +1°C° 0 mm 1 m/s 748 mmHg 92%
19:00 +1°C° 0 mm 1 m/s 748 mmHg 92%
20:00 +1°C° 0 mm 1 m/s 748 mmHg 93%
21:00 0°C° 0 mm 1 m/s 748 mmHg 93%
22:00 0°C° 0 mm 1 m/s 748 mmHg 93%
23:00 0°C° 0 mm 1 m/s 748 mmHg 93%
Mostrar mais

Necessitamos do seu Consentimento

A Meteoprog e os seus Fornecedores de Serviços podem armazenar e aceder a dados pessoais como cookies, identificadores do dispositivo ou outras tecnologias semelhantes existentes no seu dispositivo e processar estes dados para personalizar conteúdos e anúncios, assim como funcionalidades nas redes sociais e análise de tráfego.

  • Armazenar e/ou aceder a informações no seu dispositivo

    Os cookies, identificadores do dispositivo ou outras informações podem ser armazenados ou acedidos no seu dispositivo, para os fins acima indicados.

  • Anúncios e conteúdos personalizados, medição de anúncios e conteúdos, dados sobre o público-alvo e desenvolvimento de produtos

    Os anúncios e os conteúdos podem ser personalizados com base num perfil. Podem ser adicionados dados adicionais para uma maior personalização dos anúncios e dos conteúdos. A eficácia dos anúncios e dos conteúdos pode ser medida. Podem ser obtidas informações sobre o público que visualizou os anúncios e os conteúdos. Estes dados podem ser usados para desenvolver ou melhorar sistemas, softwares ou a experiência do utilizador.

Ao clicar em "Eu concordo”, permitirá o uso de cookies, identificadores do dispositivo e web beacons mencionados ou outras tecnologias semelhantes. As configurações do navegador do seu dispositivo podem ser alteradas.

Para certos fins, podem ser invocados interesses legítimos ao invés de consentimento. Pode ler mais informação sobre este assunto na nossa Política de Privacidade e Cookies.